Weather in Leontyevka

Russia / Tambov Oblast     52°20′15″N   42°52′30″E
temp.,
°C
wind,
m/s
gust,
m/s
humid.,
%
clouds,
%
prec.,
mm/h
press.,
hPa
HPBL,
m
10 august, wed
wed1000:00+22ene3442100 0.0 101874
03:00+20e345350 0.0 101756
06:00+21se335356 0.0 101753
09:00+28ssw233397 0.0 1017591
12:00+32s232558 0.0 10162068
15:00+33ssw222292 0.0 10153265
18:00+30ne2331100 0.0 101541
21:00+25nne5843100 0.0 1017172
11 august, thu
thu1100:00+24e5951100 0.0 1017223
03:00+19e487265 0.3 1017122
06:00+19ene4878100 0.4 1019153
09:00+25ene5753100 0.4 1019520
12:00+29ene6642100 0.0 10191150
15:00+31ene663795 0.0 10181867
18:00+29ene574586 0.0 1018723
21:00+18e4109030 1.8 1020221
12 august, fri
fri1200:00+17ene48854 0.1 1021143
03:00+16ene47904 0.1 1021119
06:00+17ene49870 0.0 1023229
09:00+23e56580 0.0 1022517
12:00+29ene55380 0.0 10221196
15:00+30ene54340 0.0 10211743
18:00+29ene35400 0.0 1021356
21:00+22ene47601 0.0 1021105
13 august, sat
sat1300:00+20ene496416 0.0 1022145
03:00+18e466979 0.0 102293
06:00+19ene347035 0.0 102394
09:00+26ene33464 0.0 1022542
12:00+30ene33345 0.0 10211634
15:00+31ne43314 0.0 10202091
18:00+29ne563828 0.0 1020507
21:00+22ene410515 0.0 1021162
14 august, sun
sun1400:00+20ene410515 0.0 1021165
03:00+18ene476155 0.0 1021106
06:00+18e38615 0.0 1021174
09:00+26ese563767 0.0 1021652
12:00+29e44305 0.0 10201900
15:00+30ene54252 0.0 10192240
18:00+28e463032 0.0 1019368
21:00+22ene454030 0.0 101954